RASCOM-QAF 1R

Last updated on Oct. 31, 2020, 5:53 a.m. UTC

1 36831U 10037B   20304.79418196  .00000024  00000-0  00000-0 0  9992
2 36831   0.0164 284.3066 0005631 299.5671 104.5079  1.00271661 37681
UTC
Height (km)
Latitude
Longitude
Inclination
Orbital Period
UTC large
Height (km)
Speed (km/s)
/
Latitude / Longitude
Inclination (degrees)
Orbital Period (minutes)
Azimuth
Elevation
Range (km)
Doppler Factor
iOS Compass Heading
iOS Angle

Next 30 passes for location: Hong Kong

Rise time Rise Azimuth (degrees) Set time Set Azimuth (degrees) Duration Max altitude (degrees)

No matching passes for this satellites